Regional Weather Roundup
Issued by NWS

Home | Current Version | Previous Version | Graphics & Text | Print | Product List | Glossary On
Versions: 1 2 3 4 5 6 7 8 9 10 11 12 13 14 15 16 17 18 19 20 21 22 23 24 25 26 27 28 29 30 31 32 33 34 35 36 37 38 39 40 41 42 43 44 45 46 47 48 49 50
689
ASUS45 KABQ 250710
RWRNM
NEW MEXICO REGIONAL WEATHER ROUNDUP
NATIONAL WEATHER SERVICE ALBUQUERQUE NM
100 AM MDT WED APR 25 2018

NOTE: "FAIR" MEANS FEW OR NO CLOUDS BELOW 12,000 FEET AGL WITH NO
       SIGNIFICANT WEATHER OR OBSTRUCTIONS TO VISION.

      THIS PRODUCT IS RELEASED AS TWO VERSIONS.  ONE VERSION NEAR
      THE TOP OF THE HOUR CONTAINING PRELIMINARY DATA FROM ALBUQUERQUE
      AND OTHER STATIONS.  A FINAL VERSION WITH ADDITIONAL DATA IS
      ISSUED ABOUT 10 MINUTES AFTER THE HOUR.

NMZ501-503-504-510>518-250800-
NORTHWEST PLATEAU/NORTHCENTRAL MOUNTAINS

CITY           SKY/WX    TMP DP  RH WIND       PRES   REMARKS
FARMINGTON     FAIR      57  19  22 W3        30.14R
LOS ALAMOS     FAIR      44  33  65 S18G24    30.28R
SANTA FE       FAIR      42  31  64 S10       30.26R
TAOS           FAIR      39  25  57 NW7       30.29R WCI  34
ANGEL FIRE     CLOUDY    32  26  80 N9        30.36R WCI  24

$$
NMZ402-403-502-505>509-250800-
WESTCENTRAL MOUNTAINS/SOUTHWEST MOUNTAINS

CITY           SKY/WX    TMP DP  RH WIND       PRES   REMARKS
GALLUP         FAIR      52  16  24 CALM      30.21R
GRANTS         FAIR      50   8  18 S10       30.23R
SILVER CITY    FAIR      59  14  17 NW12      30.13R

$$
NMZ407-409-411-412-250800-
SOUTHERN DESERTS

CITY           SKY/WX    TMP DP  RH WIND       PRES   REMARKS
DEMING         FAIR      62  16  16 SW6       30.06R
LAS CRUCES     FAIR      64  12  13 W7        30.05R
ALAMOGORDO     FAIR      59  21  23 W6        30.04R
T OR C         FAIR      67   7   9 NW10      30.06R

$$
NMZ519>523-250800-
CENTRAL VALLEYS/CENTRAL HIGHLANDS

CITY           SKY/WX    TMP DP  RH WIND       PRES   REMARKS
ALBUQUERQUE    FAIR      50  36  58 E31G39    30.17R
DOUBLE EAGLE   FAIR      48  35  60 E3        30.21R
MORIARTY ARPT  CLOUDY    44  35  71 E5        30.34R
CLINES CORNERS CLOUDY    37  30  75 E22       30.33R WCI  26
BELEN          FAIR      53  34  49 W9        30.17R
SOCORRO        FAIR      55  35  46 N5        30.16R

$$
NMZ524>526-539-540-250800-
SOUTHCENTRAL MOUNTAINS

CITY           SKY/WX    TMP DP  RH WIND       PRES   REMARKS
RUIDOSO        MOCLDY    39  36  87 SE15      30.33R WCI  31

$$
NMZ527>531-250800-
NORTHEAST HIGHLANDS/NORTHEAST PLAINS

CITY           SKY/WX    TMP DP  RH WIND       PRES   REMARKS
LAS VEGAS      CLOUDY    35  29  78 NE12      30.36R WCI  27
RATON          CLOUDY    36  24  62 N21       30.35S WCI  25
CLAYTON        CLOUDY    36  32  85 N20       30.37S WCI  25

$$
NMZ532>537-250800-
EASTCENTRAL PLAINS

CITY           SKY/WX    TMP DP  RH WIND       PRES   REMARKS
SANTA ROSA     CLOUDY    44  32  61 NE23      30.32R
TUCUMCARI      CLOUDY    45  35  68 NE18      30.35R
CANNON AFB     NOT AVBL
CLOVIS AIRPORT CLOUDY    44  33  65 N33G44    30.31R

$$
NMZ028-029-538-250800-
SOUTHEAST PLAINS

CITY           SKY/WX    TMP DP  RH WIND       PRES   REMARKS
ROSWELL        CLOUDY    50  35  56 N16G26    30.28R
ARTESIA        CLOUDY    50  36  57 N22G31    30.27R
CARLSBAD       MOCLDY    53  38  56 N23G32    30.22R
HOBBS          FAIR      46  37  71 NE23G33   30.17R


$$




USA.gov is the U.S. government's official web portal to all federal, state and local government web resources and services.